TimeEST,TemperatureF,Dew PointF,Humidity,Sea Level PressureIn,VisibilityMPH,Wind Direction,Wind SpeedMPH,Gust SpeedMPH,PrecipitationIn,Events,Conditions,WindDirDegrees,DateUTC
12:53 AM,53.1,52.0,96,29.86,4.0,SSW,5.8,-,0.00,,Overcast,210,2012-12-05 05:53:00
1:11 AM,53.6,51.8,94,29.85,4.0,Variable,4.6,-,N/A,,Overcast,0,2012-12-05 06:11:00
1:53 AM,51.1,48.0,89,29.89,8.0,NNW,9.2,-,0.02,Rain,Light Rain,330,2012-12-05 06:53:00
2:07 AM,50.0,48.2,94,29.88,10.0,NNW,6.9,-,0.00,Rain,Light Rain,330,2012-12-05 07:07:00
2:53 AM,48.9,46.0,90,29.92,7.0,West,4.6,-,0.07,Rain,Light Rain,280,2012-12-05 07:53:00
3:53 AM,48.0,46.0,93,29.91,9.0,SSW,3.5,-,0.03,Rain,Light Rain,210,2012-12-05 08:53:00
4:04 AM,46.4,46.4,100,29.91,10.0,WSW,3.5,-,0.00,Rain,Light Rain,250,2012-12-05 09:04:00
4:16 AM,46.4,44.6,93,29.91,10.0,SW,6.9,-,0.00,,Overcast,230,2012-12-05 09:16:00
4:53 AM,46.0,41.0,83,29.93,10.0,WSW,5.8,-,0.00,,Partly Cloudy,240,2012-12-05 09:53:00
5:53 AM,45.0,41.0,86,29.94,10.0,SW,8.1,-,N/A,,Partly Cloudy,230,2012-12-05 10:53:00
6:53 AM,45.0,39.0,80,29.94,10.0,West,6.9,-,N/A,,Partly Cloudy,260,2012-12-05 11:53:00
7:53 AM,43.0,39.0,86,29.95,10.0,WSW,5.8,-,N/A,,Scattered Clouds,240,2012-12-05 12:53:00
9:53 AM,46.0,34.0,63,29.99,10.0,WNW,15.0,21.9,N/A,,Mostly Cloudy,290,2012-12-05 14:53:00
10:53 AM,44.1,30.9,60,30.01,10.0,WNW,18.4,26.5,N/A,,Scattered Clouds,290,2012-12-05 15:53:00
11:53 AM,42.1,27.0,55,30.02,10.0,WNW,13.8,-,N/A,,Overcast,290,2012-12-05 16:53:00
12:53 PM,39.0,24.1,55,30.04,10.0,West,10.4,24.2,N/A,,Overcast,280,2012-12-05 17:53:00
1:53 PM,37.9,21.0,51,30.06,10.0,West,11.5,20.7,N/A,,Overcast,270,2012-12-05 18:53:00
2:53 PM,37.9,21.0,51,30.08,10.0,NW,13.8,-,N/A,,Overcast,310,2012-12-05 19:53:00
3:53 PM,36.0,21.0,55,30.10,10.0,WNW,9.2,-,N/A,,Overcast,300,2012-12-05 20:53:00
4:53 PM,35.1,21.0,57,30.14,10.0,NW,10.4,-,N/A,,Overcast,320,2012-12-05 21:53:00
5:53 PM,33.1,19.0,56,30.16,10.0,NNW,11.5,24.2,N/A,,Mostly Cloudy,330,2012-12-05 22:53:00
6:53 PM,32.0,16.0,52,30.20,10.0,NNW,12.7,-,N/A,,Mostly Cloudy,340,2012-12-05 23:53:00
7:53 PM,30.9,12.9,47,30.22,10.0,WNW,18.4,35.7,N/A,,Scattered Clouds,300,2012-12-06 00:53:00
8:53 PM,30.0,12.9,49,30.24,10.0,NNW,8.1,-,N/A,,Scattered Clouds,340,2012-12-06 01:53:00
9:53 PM,28.9,16.0,58,30.26,10.0,NNW,10.4,18.4,N/A,,Partly Cloudy,330,2012-12-06 02:53:00
10:53 PM,28.0,15.1,58,30.27,10.0,NW,13.8,21.9,N/A,,Clear,320,2012-12-06 03:53:00
11:53 PM,27.0,15.1,61,30.28,10.0,NW,8.1,-,N/A,,Clear,320,2012-12-06 04:53:00